AirNav   Everest Fuels
 
 1037 users online  

PA38 Highlands Hospital Heliport
Connellsville, Pennsylvania, USA

GOING TO CONNELLSVILLE?


FAA INFORMATION EFFECTIVE 18 JUNE 2020

Location

FAA Identifier: PA38
Lat/Long: 40-01-28.7020N 079-34-34.2385W
40-01.478367N 079-34.570642W
40.0246394,-79.5761774
(estimated)
Elevation: 1062 ft. / 324 m (estimated)
From city: 1 mile NE of CONNELLSVILLE, PA
Time zone: UTC -4 (UTC -5 during Standard Time)
Zip code: 15425

Heliport Operations

Heliport use: Private use. Permission required prior to landing
Activation date: 09/2017
Control tower: no
ARTCC: CLEVELAND CENTER
FSS: ALTOONA FLIGHT SERVICE STATION
Attendance: 
Wind indicator: lighted
Segmented circle: no

Heliport Communications

WX AWOS-3 at VVS (5 nm SW): 133.325 (724-626-8745)
WX AWOS-3 at FWQ (16 nm NW): 118.475 (724-379-5815)
WX AWOS-3 at LBE (17 nm NE): 118.375 (724-539-0671)

Nearby radio navigation aids

VOR radial/distance  VOR name  Freq  Var
IHDr293/10.5INDIAN HEAD VORTAC108.2006W
AGCr135/26.2ALLEGHENY VOR/DME110.0009W
MGWr030/31.0MORGANTOWN VOR/DME111.6005W
JSTr249/38.3JOHNSTOWN VOR/DME113.0006W

 
NDB name  Hdg/Dist  Freq  Var  ID
CAMOR050/11.529908WVV ...- ...-
STOYSTOWN273/30.520910WSYS ... -.-- ...

Heliport Services

Runway Information

Helipad H1

Dimensions: 40 x 40 ft. / 12 x 12 m
Surface: asphalt
Runway edge lights: PERI
Latitude: 40-01.478367N
Longitude: 079-34.570642W
Elevation: 1062.0 ft.
Traffic pattern: leftleft
Touchdown point: yes, no lightsno

Heliport Ownership and Management from official FAA records

Ownership: Privately-owned
Owner: HIGHLANDS HOSPITAL
401 EAST MURPHY AVE
CONNELLSVILLE, PA 15425
Phone (724) 628-1500
Manager: ROBERT THOMPSON
401 EAST MURPHY AVE
CONNELLSVILLE, PA 15425
Phone (724) 626-2226

Additional Remarks

TLOF 40X40 FT, FATO 70X70 FT.
INGRESS/EGRESS 138/318.
FOR CD CTC JOHNSTOWN APCH AT 814-532-5960, WHEN APCH CLSD CTC CLEVELAND ARTCC AT 440-774-0234.

Instrument Procedures

There are no published instrument procedures at PA38.

Some nearby airports with instrument procedures:

KVVS - Joseph A Hardy Connellsville Airport (5 nm SW)
KFWQ - Rostraver Airport (16 nm NW)
KLBE - Arnold Palmer Regional Airport (17 nm NE)
G05 - Finleyville Airpark (24 nm NW)
KAGC - Allegheny County Airport (26 nm NW)
 
Loc | Ops | Rwys | IFR | FBO | Links
Com | Nav | Svcs | Stats | Notes
Aerial photo
No photo
 
Airport distance calculator
Flying to Highlands Hospital Heliport? Find the distance to fly.

From to PA38

Sunrise and sunset
Times for 02-Jul-2020
 Local
(UTC-4)
 Zulu
(UTC)
Morning civil twilight05:2209:22
Sunrise05:5509:55
Sunset20:5000:50
Evening civil twilight21:2301:23

Current date and time
Zulu (UTC)  02-Jul-2020 22:31:49
Local (UTC-4)  02-Jul-2020 18:31:49
 
METAR
KP53 
16nm NW 
022156Z AUTO 00000KT 22/19 A3003 RMK AO1 SLP168 T02220189
KLBE 
17nm NE 
022145Z 03008KT 10SM FEW050 32/13 A2995
KAGC 
25nm NW 
022153Z 01006KT 10SM SCT070 31/15 A2996 RMK AO2 SLP139 T03060150
K2G9 
26nm E 
022215Z AUTO 31005KT 10SM SCT065 SCT090 27/12 A3002 RMK AO2
KMGW 
27nm SW 
022153Z 35007KT 10SM SCT070 31/14 A2998 RMK AO2 SLP140 T03110139
K2G4 
29nm S 
022215Z AUTO 00000KT 10SM SCT060 23/12 A3006 RMK AO1
KAFJ 
32nm W 
022156Z AUTO 32006KT 10SM CLR 31/17 A3000 RMK AO2 SLP149 T03060172
TAF
KLBE 
17nm NE 
021737Z 0218/0318 36005KT P6SM SCT050
NOTAMs
Click for the latest NOTAMs
NOTAMs are issued by the DoD/FAA and will open in a separate window not controlled by AirNav.

 

 
 

Would you like to see your business listed on this page?

 If your business provides an interesting product or service to pilots, flight crews, aircraft, or users of the Highlands Hospital Heliport, you should consider listing it here.  To start the listing process, click on the button below
 
Add a business
 

Other Pages about Highlands Hospital Heliport

Update a link
 
Copyright © AirNav, LLC. All rights reserved. Privacy Policy  Contact